Вернуться в каталог

FENGYUN 1C DEB

АктивенPO
NORAD 29780·DEBRIS·🇨🇳 China

Запущен May 10, 1999 с Taiyuan Satellite Launch Center

Loading…

Ближайшие Пролёты (ближайшие 24 часа)

TLE

СвежийSource: Space-Track

Эпоха: Sep 14, 2026, 19:26 UTC

1 29780U 99025BW  26257.80984101  .00002565  00000-0  11541-2 0  9996
2 29780  99.2811 198.0335 0042784  64.7700 295.7902 14.22787479  9998

Отслеживайте FENGYUN 1C DEB в реальном времени с AllMySat

Download on the App Store